Flag for U.S.A. Weather past 2 weeks in Marengo, Indiana, U.S.A.

Now
76 °F

Sunny.


Feels Like: 78 °F
Forecast: 69 / 83 °F
Wind: 10 mph from South

Location: Bowling Green-Warren County Regional Airport

Current Time: May 30, 2015 at 9:31:16 AM

Latest Report: May 30, 2015 at 8:53 AM


Visibility: 10 mi

Pressure: 30.06 "Hg

Humidity: 69%

Dew point: 65 °F

Location of MarengoLocation

Historic Weather in Marengo — Graph

°F

Marengo temperature yesterday

Maximum temperature yesterday: 83 °F (at 4:53 PM)
Minimum temperature yesterday: 65 °F (at 5:53 AM)
Average temperature yesterday: 74 °F

Past Weeks' High & Low Weather Summary

 TemperatureHumidityPressure
High87 °F (May 15, 3:53 PM)94% (May 25, 11:53 PM)30.37 "Hg (May 25, 11:53 PM)
Low42 °F (May 22, 5:58 AM)28% (May 23, 4:53 PM)29.92 "Hg (May 20, 5:53 PM)
Average70 °F73%30.13 "Hg
* Reported May 15 7:53 AM — May 30 7:53 AM, Marengo, Weather by CustomWeather, © 2015

Note: Actual official high and low records may vary slightly from our data, if they occured in-between our weather recording intervals... More about our weather records

Advertising

Marengo weather history for previous 24 hours

 ConditionsComfort  
Time TempWeatherWind HumidityBarometerVisibility
7:53 AM
Sat, May 30
73 °FSunny.7 mph76%30.06 "Hg10 mi
6:53 AM70 °FSunny.6 mph81%30.06 "Hg10 mi
5:53 AM71 °FClear.6 mph78%30.05 "Hg10 mi
4:53 AM71 °FClear.6 mph78%30.05 "Hg10 mi
3:53 AM71 °FMostly cloudy.3 mph84%30.05 "Hg10 mi
2:53 AM71 °FPassing clouds.3 mph84%30.05 "Hg10 mi
1:53 AM71 °FClear.5 mph84%30.06 "Hg10 mi
12:53 AM70 °FPassing clouds.No wind87%30.06 "Hg10 mi
11:53 PM
Fri, May 29
72 °FPassing clouds.3 mph84%30.07 "Hg10 mi
10:53 PM73 °FPartly cloudy.6 mph79%30.07 "Hg10 mi
9:53 PM74 °FOvercast.8 mph79%30.07 "Hg10 mi
8:53 PM76 °FCloudy.9 mph77%30.05 "Hg10 mi
7:53 PM80 °FMostly cloudy.9 mph64%30.04 "Hg10 mi
6:53 PM81 °FSunny.10 mph62%30.04 "Hg10 mi
5:53 PM82 °FScattered clouds.12 mph58%30.04 "Hg10 mi
4:53 PM83 °FBroken clouds.10 mph59%30.06 "Hg10 mi
3:53 PM79 °FBroken clouds.8 mph67%30.08 "Hg10 mi
2:53 PM80 °FMore clouds than sun.9 mph64%30.11 "Hg10 mi
1:53 PM78 °FCloudy.12 mph66%30.13 "Hg10 mi
12:53 PM77 °FPartly sunny.10 mph69%30.15 "Hg10 mi
11:53 AM76 °FBroken clouds.9 mph72%30.16 "Hg10 mi
10:53 AM74 °FMore clouds than sun.12 mph71%30.16 "Hg10 mi
9:53 AM74 °FPartly sunny.15 mph74%30.15 "Hg10 mi
Weather by CustomWeather, © 2015

See weather overviewHow to use our weather pages